Regional Weather Roundup
Issued by NWS

Home | Current Version | Previous Version | Graphics & Text | Print | Product List | Glossary On
Versions: 1 2 3 4 5 6 7 8 9 10 11 12 13 14 15 16 17 18 19 20 21 22 23 24 25 26 27 28 29 30 31 32 33 34 35 36 37 38 39 40 41 42 43 44 45 46 47 48 49 50
267
ASUS43 KMPX 300401
RWRMN
WEATHER ROUNDUP FOR MINNESOTA
NATIONAL WEATHER SERVICE TWIN CITIES/CHANHASSEN MN
1100 PM CDT MON MAY 29 2017


NOTE: "FAIR" INDICATES FEW OR NO CLOUDS BELOW 12,000 FEET WITH NO
SIGNIFICANT WEATHER AND/OR OBSTRUCTIONS TO VISIBILITY. N/A MEANS
CURRENT SKY AND/OR WEATHER CONDITIONS ARE NOT AVAILABLE.

MNZ060>063-068>070-300500-
   Twin Cities Metro

CITY           SKY/WX    TMP DP  RH WIND       PRES   REMARKS
TWIN CITIES    CLOUDY    57  44  62 W10       29.88R
ST PAUL        CLOUDY    56  47  71 W8        29.88R
CRYSTAL        CLOUDY    56  44  64 W8        29.86S
BLAINE         PTCLDY    55  50  82 W7        29.87S
LAKEVILLE      PTCLDY    54  46  76 W5        29.89R
EDEN PRAIRIE   CLOUDY    57  44  62 W8        29.88R
SOUTH ST PAUL  MOCLDY    57  45  65 W6        29.87S
LAKE ELMO      CLOUDY    54  48  82 W10       29.88R
$$
MNZ001>005-007-008-013>017-022>024-027-028-300500-
   Northwest Minnesota

CITY           SKY/WX    TMP DP  RH WIND       PRES   REMARKS
BEMIDJI        CLOUDY    45  41  86 NW18      29.84S
HALLOCK        CLOUDY    45  43  93 NW16      29.89S
ROSEAU         RAIN      45  39  81 NW10      29.85S
WARROAD        DRIZZLE   43  39  87 NW9       29.84S
CROOKSTON      CLOUDY    45  45 100 NW13      29.91S FOG
FOSSTON        CLOUDY    43  41  93 NW14G21   29.88S
DETROIT LAKES  CLOUDY    46  43  87 NW15      29.90S
MOORHEAD       CLOUDY    52  45  76 NW12      29.93R
PARK RAPIDS    CLOUDY    49  39  68 NW20G26   29.85S
MAHNOMEN       CLOUDY    45  43  91 NW16G22   29.89R
$$
MNZ006-009>011-018-025>026-300500-
   North Central Minnesota

CITY           SKY/WX    TMP DP  RH WIND       PRES   REMARKS
BAUDETTE       LGT RAIN  44  43  96 W9        29.80S
FLAG ISLAND    CLOUDY    45  43  93 NW15G23   29.80S
INTL FALLS     CLOUDY    47  38  71 W10       29.77S
WASKISH        CLOUDY    46  37  71 NW13G23   29.82R
BIG FORK       CLOUDY    48  37  66 W5        29.79S
LONGVILLE      CLOUDY    48  43  81 W9        29.82S
GRAND RAPIDS   CLOUDY    48  43  82 NW13      29.81S
CRANE LAKE     CLOUDY    46  41  81 CALM      29.77S
ORR            CLOUDY    48  37  66 NW12      29.74S
COOK           CLOUDY    48  41  76 W9        29.77R
WALKER         CLOUDY    45  42  88 NW9       29.83F
$$
MNZ012-019>021-037-300500-
   Northeast Minnesota

CITY           SKY/WX    TMP DP  RH WIND       PRES   REMARKS
DULUTH         CLOUDY    53  43  68 W8        29.76S
ELY            CLOUDY    48  39  71 W7        29.74S
HIBBING        CLOUDY    48  43  82 NW9       29.77R
EVELETH        CLOUDY    53  40  62 W9        29.77S
DULUTH HARBOR  CLOUDY    55  46  71 SW9       29.77S
TWO HARBORS    CLOUDY    52  46  82 CALM      29.73S
SILVER BAY     MOCLDY    46  45  93 CALM      29.72S
GRAND MARAIS     N/A     50  42  74 SW9       29.68S
G MARAIS ARPRT CLOUDY    48  39  71 W6        29.69S
$$
MNZ029>031-032-039>041-046>048-054>057-064-300500-
   West Central Minnesota

CITY           SKY/WX    TMP DP  RH WIND       PRES   REMARKS
FERGUS FALLS   CLOUDY    52  48  87 NW13      29.90S
WHEATON        CLOUDY    54  46  76 W6        29.95S
MORRIS         MOCLDY    54  45  71 NW9       29.91S
ALEXANDRIA     CLOUDY    51  47  86 W13       29.90S
ELBOW LAKE     CLOUDY    51  46  84 NW8       29.92R
WADENA         CLOUDY    48  43  81 NW7       29.87S
GLENWOOD       PTCLDY    50  46  87 W9        29.90S
APPLETON       CLOUDY    55  45  67 NW7       29.93S
BENSON         CLOUDY    54  45  71 N8        29.93S
ORTONVILLE     CLOUDY    55  45  67 W5        29.94S
MADISON        CLOUDY    57  45  62 NW6       29.94S
WILLMAR        CLOUDY    54  46  76 W8        29.93S
$$
MNZ033>034-036-042>043-049>051-058-059-300500-
   Central Minnesota

CITY           SKY/WX    TMP DP  RH WIND       PRES   REMARKS
ST CLOUD       CLOUDY    53  49  86 W12       29.86S
SAUK CENTRE    CLOUDY    50  47  88 W7        29.89S
PAYNESVILLE    CLOUDY    52  45  75 W9        29.91R
AITKIN         CLOUDY    50  45  81 W5        29.80S
PINE RIVER     CLOUDY    50  43  76 NW9       29.87S
BRAINERD       CLOUDY    51  44  77 W13       29.84S
STAPLES        CLOUDY    48  43  81 W12G18    29.86S
LONG PRAIRIE   CLOUDY    50  46  87 W7        29.89S
LITTLE FALLS   CLOUDY    52  45  76 W8        29.87S
LITCHFIELD     CLOUDY    57  46  67 NW9       29.90S
BUFFALO        CLOUDY    55  45  68 W5        29.89S
MAPLE LAKE     MOCLDY    56  47  72 W6        29.88F
HUTCHINSON     CLOUDY    54  48  80 W6        29.92S
$$
MNZ037-044-045-052-053-300500-
   East Central Minnesota

CITY           SKY/WX    TMP DP  RH WIND       PRES   REMARKS
PRINCETON      MOCLDY    54  48  82 SW5       29.86S
MORA           MOCLDY    50  45  81 W7        29.85S
CAMBRIDGE      MOCLDY    55  45  67 W5        29.84S
RUSH CITY      CLOUDY    52  46  78 W6        29.84S
MOOSE LAKE     PTCLDY    46  43  87 SW3       29.79S
HINCKLEY       LGT RAIN  52  46  82 SW6       29.82S
CLOQUET        CLOUDY    50  41  71 W7        29.78S
MCGREGOR       CLOUDY    52  46  82 W5        29.80S
$$
MNZ071>073-080-081-089-090-097-098-300500-
   Southwest Minnesota

CITY           SKY/WX    TMP DP  RH WIND       PRES   REMARKS
MONTEVIDEO     CLOUDY    55  45  67 N7        29.94R
CANBY          CLOUDY    53  45  72 CALM      29.97S
MARSHALL       PTCLDY    51  45  79 W8        29.96R
REDWOOD FALLS  MOCLDY    54  44  69 W9        29.93R
OLIVIA         MOCLDY    54  45  71 NW8       29.92S
PIPESTONE      CLEAR     52  39  62 W3        29.99R
WINDOM         CLEAR     52  46  82 SW5       29.97S
WORTHINGTON    CLEAR     50  44  80 W8        29.99R
JACKSON        CLEAR     50  46  87 CALM      29.98S
TRACY          CLEAR     54  46  75 W5        29.96S
SLAYTON        CLEAR     52  43  72 W8        29.99R
$$
MNZ065>067-074>077-082>085-091>093-300500-
   South Central Minnesota

CITY           SKY/WX    TMP DP  RH WIND       PRES   REMARKS
MANKATO        PTCLDY    54  45  71 W10       29.93R
NEW ULM        CLEAR     50  45  81 W7        29.94R
ST JAMES       CLEAR     52  48  87 W7        29.96R
FAIRMONT       CLEAR     52  48  86 W10       29.97R
GLENCOE        CLEAR     56  49  78 W10       29.90S
FARIBAULT      MOCLDY    55  48  76 W8        29.91S
OWATONNA       CLEAR     54  45  71 W9        29.92R
WASECA         CLEAR     52  46  82 W7        29.94S
ALBERT LEA     CLEAR     57  52  82 W5        29.94R
$$
MNZ078>079-086>088-094>096-300500-
   Southeast Minnesota

CITY           SKY/WX    TMP DP  RH WIND       PRES   REMARKS
ROCHESTER      LGT RAIN  54  50  86 W15       29.91S
RED WING       PTCLDY    52  46  82 NW3       29.86S
STANTON        PTCLDY    55  48  76 W8        29.88S
DODGE CENTER   MOCLDY    54  48  82 W12       29.91S
WINONA         CLEAR     55  46  71 W3        29.88S
AUSTIN         PTCLDY    54  48  82 W6        29.92S
PRESTON        MOCLDY    53  48  84 W9        29.92S
$$
ABBREVIATIONS USED IN REMARKS
   TC - TEMPERATURES IN CELSIUS
  WCI - WIND CHILL INDEX
   HX - HEAT INDEX
  VSB - VISIBILITY
$$




USA.gov is the U.S. government's official web portal to all federal, state and local government web resources and services.